Location: Cosy Dell
(34.2789°N, 117.4537°W)
Time: 11:57:10
(UTC+00:00)

SPOT 5 - Pass Details

Date: 14 July 2020
Orbit: 622 x 815 km, 98.3° (Epoch: 09 August)

Event Time Altitude Azimuth Distance (km) Brightness Sun altitude
Exits shadow 05:21:08 51° 87° (E) 901 3.1 -23.1°
Maximum altitude 05:21:25 51° 74° (ENE) 891 3.1 -23.2°
Drops below altitude 10° 05:25:57 10° 359° (N) 2,139 6.0 -23.7°
Sets 05:28:11 0° 354° (N) 3,030 7.0 -24.0°
